TimeEST,TemperatureF,Dew PointF,Humidity,Sea Level PressureIn,VisibilityMPH,Wind Direction,Wind SpeedMPH,Gust SpeedMPH,PrecipitationIn,Events,Conditions,WindDirDegrees,DateUTC
12:53 AM,28.0,10.0,47,30.26,10.0,Calm,Calm,-,N/A,,Clear,0,2013-01-23 05:53:00
1:53 AM,27.0,10.9,51,30.26,10.0,Calm,Calm,-,N/A,,Clear,0,2013-01-23 06:53:00
2:53 AM,27.0,9.0,47,30.27,10.0,Calm,Calm,-,N/A,,Clear,0,2013-01-23 07:53:00
3:53 AM,27.0,7.0,43,30.27,10.0,Calm,Calm,-,N/A,,Clear,0,2013-01-23 08:53:00
4:53 AM,24.1,14.0,65,30.27,10.0,Calm,Calm,-,N/A,,Clear,0,2013-01-23 09:53:00
5:53 AM,24.1,14.0,65,30.28,10.0,South,3.5,-,N/A,,Clear,170,2013-01-23 10:53:00
6:53 AM,23.0,12.0,63,30.30,10.0,Calm,Calm,-,N/A,,Clear,0,2013-01-23 11:53:00
7:53 AM,21.9,16.0,78,30.32,10.0,Calm,Calm,-,N/A,,Clear,0,2013-01-23 12:53:00
8:53 AM,28.9,17.1,61,30.32,10.0,Calm,Calm,-,N/A,,Clear,0,2013-01-23 13:53:00
9:53 AM,34.0,9.0,35,30.32,10.0,SSE,3.5,-,N/A,,Clear,150,2013-01-23 14:53:00
10:53 AM,37.0,10.9,34,30.34,10.0,Variable,4.6,-,N/A,,Clear,0,2013-01-23 15:53:00
11:53 AM,39.9,12.0,32,30.30,10.0,Calm,Calm,-,N/A,,Clear,0,2013-01-23 16:53:00
12:53 PM,44.1,17.1,34,30.25,10.0,Variable,6.9,-,N/A,,Clear,0,2013-01-23 17:53:00
1:53 PM,48.0,19.9,33,30.20,10.0,West,10.4,-,N/A,,Clear,260,2013-01-23 18:53:00
2:53 PM,50.0,23.0,35,30.18,10.0,West,6.9,-,N/A,,Clear,260,2013-01-23 19:53:00
3:53 PM,51.1,25.0,36,30.15,10.0,WSW,9.2,-,N/A,,Clear,240,2013-01-23 20:53:00
4:53 PM,50.0,25.0,38,30.14,10.0,WSW,11.5,20.7,N/A,,Clear,240,2013-01-23 21:53:00
5:53 PM,48.0,26.1,42,30.14,10.0,SSW,11.5,-,N/A,,Clear,210,2013-01-23 22:53:00
6:53 PM,45.0,27.0,49,30.14,10.0,SSW,9.2,-,N/A,,Clear,200,2013-01-23 23:53:00
7:53 PM,44.1,27.0,51,30.12,10.0,SW,13.8,20.7,N/A,,Clear,230,2013-01-24 00:53:00
8:53 PM,43.0,26.1,51,30.12,10.0,WSW,15.0,-,N/A,,Clear,240,2013-01-24 01:53:00
9:53 PM,42.8,26.6,53,30.09,10.0,WSW,15.0,20.7,N/A,,Clear,240,2013-01-24 02:53:00
10:53 PM,41.0,27.0,57,30.09,10.0,SW,12.7,-,N/A,,Clear,230,2013-01-24 03:53:00
11:53 PM,41.0,28.4,61,30.06,10.0,SW,15.0,-,N/A,,Clear,230,2013-01-24 04:53:00